Tracking 32968 objects as of 18-Jan-2026
HD Live streaming from Space Station
objects crossing your sky now

STARLINK-11645

Track STARLINK-11645 now!
10-day predictions
STARLINK-11645 is classified as:


NORAD ID: 63316
Int'l Code: 2025-057K
Perigee: 362.1 km
Apogee: 364.7 km
Inclination: 43.0 °
Period: 91.7 minutes
Semi major axis: 6734 km
RCS: Unknown
Launch date: March 18, 2025
Source: United States (US)
Launch site: AIR FORCE EASTERN TEST RANGE (AFETR)
Your satellite tracking list
Your tracking list is empty




NASA's NSSDC Master Catalog

Two Line Element Set (TLE):
1 63316U 25057K   26017.56278164  .00235368  00000-0  17799-2 0  9995
2 63316  42.9977 212.9768 0001981 263.7483  96.3159 15.70925211 49162
Source of the keplerian elements: AFSPC